一网星座-0455星 (ONEWEB-0455 )

导读 | 豆包AI

ONEWEB-0455是英国OneWeb公司低轨宽带卫星星座的一员,于2022年2月10日发射入轨。卫星重约147.5公斤,运行于1200公里近地轨道,配备Ku和Ka波段天线,采用氙等离子体推力器,设计寿命超7年。它旨在为全球尤其是偏远地区提供低时延宽带互联网接入,服务航空、海事、应急响应等领域,助力全球无缝网络覆盖建设。

Basic Information
目录编号:
51645
目录名称:
ONEWEB-0455
国际标识:
2022-012Z
轨道中心:
EARTH
卫星名称:
一网星座-0455星
卫星全名:
一网星座-0455星 (ONEWEB-0455 )
卫星状态:
在轨 (已飞行1542 天)
发射日期:
2022-02-10 UTC
国别 :
英国 (GB)
星等 :
--
Orbit Information
数据来源 国际轨道数据 AOE轨道数据
星历时间 2026-05-02T06:35:30+0800
11小时前
查看轨道信息
2026-04-27T12:00:00+0800
5天前
查看轨道信息
半长轴 7191.277km 7191.292km
偏心率 0.0014995 0.0015132
轨道倾角 87.523° 87.523°
近地点辐角 297.722° 315.195°
升交点赤经 285.383° 286.731°
平近点角 62.245° 70.040°
近地点 802.356km 802.273km
远地点 823.924km 824.037km
周期 101.151分钟 101.151分钟
每日圈数 14.236189 14.236145
Detailed Information
平衡模式:
三轴稳定
覆盖范围:
全球
运营商:
一网卫星公司
运营商所在国:
英国
制造商(研发单位):
一网卫星公司
制造商所在国:
英国
使用方式:
暂无
Satellite Introduction
OneWeb卫星网络由648颗重约125公斤的微型卫星组成,运行在1200公里的轨道上。 每颗卫星都能够提供至少每秒8千兆位的吞吐量,以使用其高吞吐量的Ku频段有效载荷为家庭和移动平台提供互联网接入。该卫星已退役。
2D Orbit Map
3D Orbit Map
Orbit Altitude Analysis Chart
Orbit Inclination Analysis Chart
Orbit Comprehensive Analysis Chart
View Comprehensive Chart